This is the latest recevied weather packets stored in our database for station/object LU1MQF-13. If no packets are shown the sender has not sent any weather packets the latest 10 day(s).
| Time | Temp. | Humidity | Pressure | Rain* | Wind** | Luminosity | Snow |
|---|---|---|---|---|---|---|---|
| 1778113631 | 18.89° C | 44% | 931 hPa | - | - | - | - |
| 1778112732 | 20° C | 50% | 931.1 hPa | - | - | - | - |
| 1778111832 | 18.89° C | 50% | 931.1 hPa | - | - | - | - |
| 1778110932 | 18.89° C | 50% | 931.1 hPa | - | - | - | - |
| 1778110032 | 18.89° C | 49% | 931.4 hPa | - | - | - | - |
| 1778109132 | 18.89° C | 39% | 931.2 hPa | - | - | - | - |
| 1778108231 | 18.89° C | 39% | 931.7 hPa | - | - | - | - |
| 1778107332 | 18.89° C | 39% | 931.2 hPa | - | - | - | - |
| 1778106432 | 18.89° C | 38% | 931 hPa | - | - | - | - |
| 1778105532 | 18.89° C | 39% | 930.9 hPa | - | - | - | - |
| 1778104631 | 18.89° C | 39% | 930.7 hPa | - | - | - | - |
| 1778103731 | 20° C | 39% | 930.7 hPa | - | - | - | - |
| 1778102832 | 20° C | 39% | 930.3 hPa | - | - | - | - |
| 1778101932 | 21.11° C | 38% | 930.6 hPa | - | - | - | - |
| 1778101031 | 21.11° C | 37% | 930.7 hPa | - | - | - | - |
| 1778100131 | 21.11° C | 37% | 930.4 hPa | - | - | - | - |
| 1778099231 | 21.11° C | 35% | 929.6 hPa | - | - | - | - |
| 1778098332 | 22.22° C | 33% | 928.8 hPa | - | - | - | - |
| 1778097431 | 22.22° C | 33% | 929 hPa | - | - | - | - |
| 1778096532 | 22.22° C | 30% | 929.7 hPa | - | - | - | - |
| 1778095631 | 22.22° C | 29% | 929.4 hPa | - | - | - | - |
| 1778094731 | 22.78° C | 29% | 929.3 hPa | - | - | - | - |
| 1778093830 | 23.89° C | 28% | 929.4 hPa | - | - | - | - |
| 1778092930 | 23.89° C | 28% | 929 hPa | - | - | - | - |
| 1778092031 | 23.89° C | 30% | 928.5 hPa | - | - | - | - |
* Rain since midnight (hover to see other rain measurements)
** Current wind speed in m/s (hover to see current wind gust speed)